Lid_Strength_Index
2 4 9 8 11 12 14 13 12 11 12 10 7 8 9 8 10 13 2 1 1 0 -0 -0 -1 -2 -1 -1 -1 -1 -2 -1 -1 -1 -1 -1 -1 -1 -1 -2 -2 -2 -1 -2 -2 -1 -2 -1 -1
4 6 8 11 14 15 15 15 14 12 13 11 7 7 8 10 5 5 3 0 0 0 -0 -0 -0 -1 -2 -2 -1 -1 -2 -2 -1 -1 -1 -1 -1 -1 -1 -2 -2 -2 -2 -2 -2 -2 -1 -1 -1
7 8 11 14 18 18 16 15 15 14 13 11 8 6 7 12 10 7 2 0 0 0 -0 -0 -0 -1 -1 -1 -2 -2 -2 -2 -1 -1 -1 -1 -1 -1 -2 -2 -2 -2 -2 -1 -2 -1 -1 -1 -1
7 7 9 17 19 16 16 13 14 13 10 10 7 9 9 11 11 8 5 2 0 0 -0 0 -1 -1 -1 -1 -2 -2 -2 -2 -1 -1 -1 -1 -1 -2 -2 -2 -2 -2 -2 -1 -1 -1 -0 -0 -0
7 8 13 17 16 15 14 13 13 13 13 14 9 9 11 11 10 9 8 7 7 4 1 0 0 -1 -1 -1 -2 -2 -2 -2 -2 -2 -1 -2 -1 -2 -2 -2 -2 -2 -1 -1 -1 -1 -0 0 0
10 9 15 17 17 15 13 13 14 15 14 14 13 9 12 11 11 9 9 9 9 8 7 6 5 2 0 -1 -1 -1 -1 -2 -2 -2 -2 -2 -2 -2 -2 -2 -2 -1 -1 -1 -1 -1 -1 -1 -1
9 11 14 15 15 15 15 13 14 15 15 15 14 15 13 14 11 10 10 10 9 9 8 8 7 6 4 1 0 -1 -1 -1 -1 -2 -2 -1 -1 -2 -2 -2 -2 -2 -1 -1 -1 -1 -1 -1 -1
8 10 14 14 16 16 13 14 13 15 16 12 13 16 16 14 12 11 10 10 10 10 9 9 8 7 6 2 2 1 0 -0 -1 -1 -0 0 0 -0 -1 -1 -1 -1 -1 -1 -1 -1 -1 -1 -1
6 12 15 14 14 16 14 14 13 12 14 14 14 14 13 13 12 12 13 12 12 11 10 9 9 8 7 4 3 2 1 1 1 1 1 2 1 1 1 1 -0 -1 -2 -2 -1 -1 -1 -1 -1
9 12 13 11 13 16 15 14 13 15 16 16 15 13 13 13 14 15 15 14 13 13 12 11 9 9 9 6 5 2 0 0 0 0 0 1 1 1 0 1 1 -0 -0 -1 -1 -1 -1 0 3
10 13 11 12 12 11 14 15 14 15 18 16 17 15 15 14 14 15 15 15 15 14 13 12 11 10 9 9 7 6 4 1 -0 0 -0 -0 0 1 1 1 1 1 3 1 0 1 1 2 3
12 10 10 10 10 10 14 14 16 16 16 15 15 15 15 16 16 16 16 16 15 15 14 13 12 12 10 9 8 7 6 6 5 1 0 -0 0 1 1 0 1 1 1 1 1 1 1 3 4
12 11 12 12 13 14 14 17 16 16 15 15 16 16 17 17 16 16 16 15 16 16 15 13 13 12 11 10 9 9 8 7 6 5 3 2 0 1 1 1 1 2 2 1 1 2 2 2 4
11 10 12 13 13 14 16 16 15 16 15 16 16 17 17 17 17 17 16 16 16 15 15 15 14 14 12 11 11 9 9 8 7 7 8 8 6 4 1 2 1 1 1 1 1 1 2 3 4
12 14 13 13 12 13 12 17 18 16 16 17 17 17 16 16 16 17 16 17 16 16 15 15 14 13 13 12 12 10 10 9 9 9 8 8 8 8 7 2 2 2 2 2 2 2 3 3 5
15 15 18 14 13 14 14 20 17 15 16 17 17 17 17 17 16 16 16 16 16 16 16 15 14 14 14 13 12 11 11 10 10 10 9 9 9 9 9 7 4 2 2 2 3 3 4 4 6
16 20 19 18 14 14 15 19 17 16 17 18 17 17 17 17 16 16 16 16 16 16 16 16 15 15 15 14 13 12 12 11 11 10 10 11 10 9 9 8 7 6 3 1 2 3 3 4 5
19 19 17 18 15 16 18 19 17 16 17 18 18 18 17 17 17 16 16 15 15 15 15 15 15 15 15 15 15 14 14 13 13 12 12 11 11 10 10 9 9 9 8 6 2 2 3 3 4
19 18 20 19 15 16 17 18 17 16 16 17 17 17 16 17 16 15 15 15 15 15 15 16 16 15 15 15 16 15 16 15 14 13 13 12 12 11 11 10 10 11 10 9 8 2 3 5 7
18 18 19 16 14 15 16 18 16 16 17 16 16 16 15 15 14 14 13 13 14 13 13 13 14 14 14 14 15 15 15 15 14 14 14 13 13 12 12 11 12 11 11 10 10 9 6 4 7
19 19 19 17 14 15 15 18 18 16 16 16 16 16 15 15 15 14 14 14 14 14 13 13 13 12 12 12 13 13 13 14 15 15 14 14 13 13 13 13 12 12 12 11 10 10 10 8 7
18 18 17 16 18 21 15 26 19 18 18 17 17 17 17 16 15 14 14 14 14 14 14 13 12 12 12 12 12 13 13 14 13 14 14 14 14 14 14 13 13 13 12 12 12 11 10 9 8
18 17 17 16 18 21 20 24 21 18 19 19 18 17 17 16 15 15 14 14 13 13 14 14 13 13 12 12 12 13 13 13 12 12 12 12 12 13 14 14 14 14 13 13 12 12 12 10 9
16 17 17 18 19 28 23 23 22 20 18 19 18 17 16 16 15 15 14 14 14 14 13 13 13 13 12 13 13 13 13 13 13 13 13 13 12 12 12 13 13 13 13 13 12 12 12 11 10
17 20 30 28 30 28 22 25 21 19 18 18 18 17 17 16 16 16 15 15 15 15 14 14 14 13 13 13 13 13 13 13 13 13 13 13 13 13 13 12 13 13 12 12 12 12 12 12 11
19 22 27 31 29 27 22 26 21 17 17 17 17 17 17 17 16 16 15 16 16 15 15 14 14 14 13 13 13 13 13 13 13 13 13 13 13 13 12 13 13 13 12 12 11 11 11 11 12
20 23 20 32 38 32 25 21 18 17 18 18 18 18 18 17 17 16 16 16 15 15 15 15 15 14 14 13 13 13 13 13 13 13 13 13 13 12 12 13 13 13 13 12 12 11 11 10 10
19 18 25 29 32 33 27 27 24 18 18 18 19 18 18 17 17 16 16 15 15 15 15 14 14 14 14 14 13 13 13 13 12 13 13 13 13 13 13 13 13 14 13 13 13 11 11 11 10
22 22 23 26 28 32 33 25 23 19 17 17 17 18 17 17 17 16 15 15 15 15 15 14 14 14 13 13 13 13 12 12 12 13 13 13 13 13 13 14 14 14 14 13 13 12 12 12 11
20 22 23 29 30 28 27 26 17 18 16 17 17 16 16 16 16 16 16 16 15 15 15 14 14 13 13 13 13 12 12 13 13 13 13 13 14 13 14 14 14 14 14 14 14 13 12 12 12